Location: Carrizalito
(10.3833°N, 67.0217°W)
Time: 15:08:41
(UTC+00:00)

Meteor 1-11 Rocket - Pass Details

Date: 08 July 2022
Orbit: 830 x 916 km, 81.2° (Epoch: 18 August)

Event Time Altitude Azimuth Distance (km) Brightness Sun altitude
Exits shadow 07:06:23 21° 92° (E) 1,947 5.9 -40.1°
Drops below altitude 10° 07:10:35 10° 46° (NE) 2,591 6.9 -39.4°
Sets 07:13:39 0° 31° (NNE) 3,523 7.7 -38.8°
